Date String (YYYY-MM-DD hh:mm:ss) UTC,Instrument flags,Ambient pressure (hPa),Sample flow (lpm),Bypass flow (lpm),Sample temperature (°C),Ambient temperature (°C),ASC tube jacket temperature (°C),LED temperature (°C),Box temperature (°C),Sample RH (%),Span deviation,Mass concentration (μg/m³),Mass concentration (μg/m³),Mass concentration (μg/m³)
DateTimeUTC,F1_M11,P_M11,Q1_M11,Q2_M11,T1_M11,T2_M11,T3_M11,T4_M11,T5_M11,U1_M11,ZSPAN_M11,X0_M11,X2_M11,X1_M11
2022-04-25 11:00:00,,0833.1,5.00,0.00,20.8,20.0,00.0,29.9,22.3,14.7,0000.0,0007.72,0003.44,0002.58
2022-04-25 11:01:00,,0833.1,5.00,0.00,20.7,19.9,00.0,29.9,22.2,14.7,0000.0,0007.70,0003.41,0002.58
2022-04-25 11:02:00,,0833.1,4.99,0.00,20.7,19.9,00.0,29.9,22.2,14.8,0000.0,0007.29,0003.36,0002.58
2022-04-25 11:03:00,,0833.1,4.99,0.00,20.7,20.3,00.0,29.9,22.3,14.8,0000.0,0006.83,0003.37,0002.57
2022-04-25 11:04:00,,0833.1,5.01,0.00,20.9,21.4,00.0,29.9,22.7,14.7,0000.0,0006.90,0003.39,0002.55
2022-04-25 11:05:00,,0833.2,5.00,0.00,21.1,22.4,00.0,30.0,23.1,14.5,0000.0,0006.81,0003.37,0002.53
2022-04-25 11:06:00,,0833.2,5.00,0.00,21.2,22.5,00.0,30.0,23.2,14.3,0000.0,0006.68,0003.34,0002.53
2022-04-25 11:07:00,,0833.2,4.99,0.00,21.3,22.2,00.0,30.0,23.2,14.3,0000.0,0006.86,0003.34,0002.53
2022-04-25 11:08:00,,0833.1,5.01,0.00,21.3,21.8,00.0,30.1,23.1,14.3,0000.0,0006.99,0003.36,0002.53
2022-04-25 11:09:00,,0833.2,5.00,0.00,21.3,21.5,00.0,30.1,23.0,14.3,0000.0,0006.94,0003.35,0002.53
2022-04-25 11:10:00,,0833.1,4.99,0.00,21.2,21.2,00.0,30.1,22.9,14.3,0000.0,0007.09,0003.38,0002.53
2022-04-25 11:11:00,,0833.1,4.99,0.00,21.2,21.1,00.0,30.1,22.9,14.3,0000.0,0006.18,0003.36,0002.51
2022-04-25 11:12:00,,0833.0,5.02,0.00,21.2,20.9,00.0,30.1,22.9,14.4,0000.0,0007.45,0003.36,0002.51
2022-04-25 11:13:00,,0833.1,4.99,0.00,21.2,20.8,00.0,30.1,22.9,14.4,0000.0,0007.71,0003.39,0002.52
2022-04-25 11:14:00,,0833.1,5.01,0.00,21.2,20.8,00.0,30.1,22.8,14.4,0000.0,0007.74,0003.38,0002.51
2022-04-25 11:15:00,,0833.1,4.99,0.00,21.1,20.7,00.0,30.1,22.8,14.4,0000.0,0007.59,0003.34,0002.51
2022-04-25 11:16:00,,0833.1,5.00,0.00,21.1,20.7,00.0,30.1,22.8,14.4,0000.0,0007.58,0003.33,0002.50
2022-04-25 11:17:00,,0833.1,5.01,0.00,21.1,20.6,00.0,30.1,22.8,14.5,0000.0,0007.66,0003.37,0002.49
2022-04-25 11:18:00,,0833.1,5.01,0.00,21.1,20.6,00.0,30.1,22.7,14.5,0000.0,0007.61,0003.38,0002.48
2022-04-25 11:19:00,,0833.1,4.99,0.00,21.1,20.6,00.0,30.1,22.8,14.5,0000.0,0007.69,0003.38,0002.47
2022-04-25 11:20:00,,0833.1,5.01,0.00,21.1,20.5,00.0,30.1,22.8,14.5,0000.0,0007.79,0003.38,0002.45
2022-04-25 11:21:00,,0833.1,4.99,0.00,21.1,20.5,00.0,30.1,22.8,14.5,0000.0,0007.92,0003.39,0002.44
2022-04-25 11:22:00,,0833.1,5.00,0.00,21.1,20.5,00.0,30.1,22.8,14.5,0000.0,0007.82,0003.39,0002.41
2022-04-25 11:23:00,,0833.1,5.01,0.00,21.1,20.6,00.0,30.1,22.8,14.5,0000.0,0006.60,0003.34,0002.39
2022-04-25 11:24:00,,0833.1,5.00,0.00,21.1,20.6,00.0,30.1,22.9,14.5,0000.0,0006.37,0003.33,0002.37
2022-04-25 11:25:00,,0833.1,5.00,0.00,21.2,20.6,00.0,30.1,22.9,14.5,0000.0,0006.51,0003.32,0002.36
2022-04-25 11:26:00,,0833.1,5.01,0.00,21.2,20.7,00.0,30.1,22.9,14.4,0000.0,0006.80,0003.33,0002.35
2022-04-25 11:27:00,,0833.1,4.98,0.00,21.2,20.7,00.0,30.1,22.9,14.4,0000.0,0006.76,0003.31,0002.36
2022-04-25 11:28:00,,0833.2,5.01,0.00,21.2,20.7,00.0,30.1,22.9,14.4,0000.0,0006.76,0003.30,0002.37
2022-04-25 11:29:00,,0833.1,5.01,0.00,21.2,20.7,00.0,30.1,23.0,14.4,0000.0,0006.78,0003.30,0002.37
2022-04-25 11:30:00,,0833.1,4.98,0.00,21.2,20.7,00.0,30.1,23.0,14.4,0000.0,0006.72,0003.30,0002.37
2022-04-25 11:31:00,,0833.1,5.01,0.00,21.2,20.7,00.0,30.1,23.0,14.4,0000.0,0006.78,0003.34,0002.37
2022-04-25 11:32:00,,0833.1,5.01,0.00,21.2,20.7,00.0,30.1,23.0,14.4,0000.0,0006.68,0003.33,0002.38
2022-04-25 11:33:00,,0833.1,4.98,0.00,21.2,20.7,00.0,30.1,23.0,14.4,0000.0,0006.43,0003.31,0002.39
2022-04-25 11:34:00,,0833.1,5.01,0.00,21.2,20.7,00.0,30.1,23.0,14.4,0000.0,0006.78,0003.34,0002.39
2022-04-25 11:35:00,,0833.1,5.01,0.00,21.3,20.7,00.0,30.1,23.0,14.4,0000.0,0006.89,0003.34,0002.40
2022-04-25 11:36:00,,0833.1,4.99,0.00,21.3,21.3,00.0,30.2,23.1,14.4,0000.0,0006.95,0003.33,0002.40
2022-04-25 11:37:00,,0833.1,5.01,0.00,21.5,22.2,00.0,30.2,23.4,14.3,0000.0,0006.70,0003.34,0002.42
2022-04-25 11:38:00,,0833.1,4.99,0.00,21.6,22.8,00.0,30.3,23.7,14.2,0000.0,0006.58,0003.33,0002.40
2022-04-25 11:39:00,,0833.1,4.99,0.00,21.7,22.7,00.0,30.3,23.8,14.1,0000.0,0006.47,0003.31,0002.39
2022-04-25 11:40:00,,0833.1,5.00,0.00,21.8,22.4,00.0,30.4,23.7,14.0,0000.0,0006.44,0003.31,0002.39
2022-04-25 11:41:00,,0833.1,4.99,0.00,21.8,22.2,00.0,30.4,23.7,14.0,0000.0,0006.53,0003.31,0002.39
2022-04-25 11:42:00,,0833.1,4.99,0.00,21.8,22.0,00.0,30.4,23.6,14.0,0000.0,0006.20,0003.21,0002.37
2022-04-25 11:43:00,,0833.1,5.02,0.00,21.8,21.8,00.0,30.5,23.6,14.0,0000.0,0006.88,0003.20,0002.35
2022-04-25 11:44:00,,0833.1,4.99,0.00,21.8,21.7,00.0,30.5,23.6,14.0,0000.0,0007.19,0003.21,0002.35
2022-04-25 11:45:00,,0833.1,5.00,0.00,21.8,21.6,00.0,30.5,23.6,14.0,0000.0,0006.95,0003.19,0002.36
2022-04-25 11:46:00,,0833.1,5.00,0.00,21.8,21.5,00.0,30.5,23.6,14.0,0000.0,0007.01,0003.21,0002.36
2022-04-25 11:47:00,,0833.1,5.01,0.00,21.8,21.5,00.0,30.6,23.6,14.0,0000.0,0006.57,0003.24,0002.36
2022-04-25 11:48:00,,0833.1,4.98,0.00,21.8,21.4,00.0,30.6,23.6,14.0,0000.0,0006.61,0003.24,0002.36
2022-04-25 11:49:00,,0833.1,5.01,0.00,21.8,21.4,00.0,30.6,23.5,14.0,0000.0,0006.78,0003.27,0002.36
2022-04-25 11:50:00,,0833.2,5.01,0.00,21.7,21.3,00.0,30.6,23.5,14.0,0000.0,0007.11,0003.33,0002.38
2022-04-25 11:51:00,,0833.1,4.99,0.00,21.7,21.3,00.0,30.6,23.5,14.0,0000.0,0007.62,0003.31,0002.38
2022-04-25 11:52:00,,0833.2,5.01,0.00,21.7,21.2,00.0,30.6,23.5,14.0,0000.0,0007.61,0003.30,0002.38
2022-04-25 11:53:00,,0833.1,5.00,0.00,21.7,21.2,00.0,30.6,23.5,14.0,0000.0,0007.63,0003.33,0002.40
2022-04-25 11:54:00,,0833.2,5.00,0.00,21.7,21.2,00.0,30.6,23.5,14.0,0000.0,0007.23,0003.36,0002.40
2022-04-25 11:55:00,,0833.2,4.98,0.00,21.7,21.2,00.0,30.6,23.5,14.0,0000.0,0007.14,0003.37,0002.41
2022-04-25 11:56:00,,0833.2,5.00,0.00,21.7,21.2,00.0,30.6,23.5,14.0,0000.0,0007.33,0003.39,0002.41
2022-04-25 11:57:00,,0833.2,5.01,0.00,21.7,21.2,00.0,30.6,23.5,14.0,0000.0,0007.59,0003.39,0002.41
2022-04-25 11:58:00,,0833.1,5.00,0.00,21.7,21.2,00.0,30.6,23.5,14.0,0000.0,0007.84,0003.39,0002.43
2022-04-25 11:59:00,,0833.1,4.98,0.00,21.7,21.1,00.0,30.6,23.5,14.0,0000.0,0007.87,0003.40,0002.44
